Regional Weather Roundup
Issued by NWS

Home | Current Version | Previous Version | Text Only | Print | Product List | Glossary Off
Versions: 1 2 3 4 5 6 7 8 9 10 11 12 13 14 15 16 17 18 19 20 21 22 23 24 25 26 27 28 29 30 31 32 33 34 35 36 37 38 39 40 41 42 43 44 45 46 47 48 49 50

643
ASUS43 KMKX 220300
RWRWI

WISCONSIN REGIONAL WEATHER ROUNDUP
NATIONAL WEATHER SERVICE MILWAUKEE/SULLIVAN WI
1000 PM CDT SAT OCT 21 2017

NOTE: "FAIR" INDICATES FEW OR NO CLOUDS BELOW 12,000 FEET WITH NO
SIGNIFICANT WEATHER AND/OR OBSTRUCTIONS TO VISIBILITY.

WIZ001-002-006>008-014>016-023>028-220400-
NORTHWEST WISCONSIN

CITY           SKY/WX    TMP DP  RH WIND       PRES   REMARKS
SUPERIOR ARPT  CLOUDY    65  60  86 S9        29.65F
ASHLAND        LGT RAIN  68  57  68 S12       29.71S
HAYWARD        LGT RAIN  63  60  90 SE12      29.70F
SIREN          CLOUDY    62  55  76 W14G25    29.70R
CUMBERLAND     CLOUDY    61  59  94 S12       29.71F
RICE LAKE      CLOUDY    63  59  87 SE9       29.73F
CHETEK         RAIN      65  60  85 S8        29.73S
LADYSMITH      CLOUDY    66  58  74 SE7       29.76F
EAU CLAIRE     RAIN      64  61  88 S16G24    29.75R FOG
MENOMONIE      RAIN      63  63  99 S16       29.73S
NEW RICHMOND   LGT RAIN  56  50  81 W12G23    29.75R
OSCEOLA        CLOUDY    56  51  82 W12       29.77R
$$

WIZ003>005-009-010-017-018-220400-
NORTH CENTRAL WISCONSIN

CITY           SKY/WX    TMP DP  RH WIND       PRES   REMARKS
MANITOWISH WTR CLOUDY    65  58  77 S14       29.79F
ARBOR VITAE    CLOUDY    67  58  72 S12G17    29.80S
WOODRUFF       CLOUDY    67  58  72 S12G17    29.80S
RHINELANDER    MOCLDY    66  58  75 S9        29.83F
EAGLE RIVER    NOT AVBL
LAND O LAKES   CLOUDY    65  56  71 S9        29.83F
PHILLIPS       CLOUDY    66  59  78 S8G16     29.77F
TOMAHAWK       PTCLDY    64  56  77 S3        29.82S
MEDFORD        CLOUDY    65  57  76 SE8       29.79F
MERRILL        PTCLDY    67  58  72 SE8       29.82F
$$

WIZ029-030-035-036-043>047-220400-
CENTRAL WISCONSIN

CITY           SKY/WX    TMP DP  RH WIND       PRES   REMARKS
WAUSAU         PTCLDY    67  56  67 S13G23    29.82S
MOSINEE        PTCLDY    66  57  72 S15G22    29.84F
MARSHFIELD     CLOUDY    66  56  70 S9        29.80F
STEVENS POINT  PTCLDY    67  56  67 S13       29.84F
WAUPACA        CLEAR     69  56  62 SE10      29.86F
WAUTOMA        CLEAR    N/A N/A N/A S12G21    29.87S
WISC RAPIDS    CLOUDY    69  58  67 S12       29.84S
CAMP DOUGLAS   PTCLDY    70  59  68 S10       29.81R
$$

WIZ011>013-019>022-031-037>040-048>050-220400-
NORTHEAST WISCONSIN

CITY           SKY/WX    TMP DP  RH WIND       PRES   REMARKS
ANTIGO         CLOUDY    65  56  72 S15       29.86F
SHAWANO        CLEAR     65  56  73 SE8       29.86F
OCONTO         CLEAR     62  56  79 S8        29.89F
STURGEON BAY   CLOUDY    63  56  78 S22G29    29.92F
GREEN BAY      CLEAR     65  58  78 S15       29.89F
MANITOWOC      CLOUDY    61  56  83 S21G29    29.94F
APPLETON       PTCLDY    64  54  68 S13       29.88
CLINTONVILLE   NOT AVBL
OSHKOSH        CLEAR     67  58  72 S14       29.89F
$$

WIZ032>034-041-042-053>061-220400-
SOUTHWEST WISCONSIN

CITY           SKY/WX    TMP DP  RH WIND       PRES   REMARKS
LA CROSSE      TSTM      68  63  84 S14       29.78R
SPARTA         CLOUDY    71  60  67 S13G22    29.78F
VIROQUA        CLOUDY    69  61  76 SE16G23   29.80F
BOSCOBEL       CLOUDY    73  60  63 S12G21    29.82R
PRAIRIE DU CHI CLOUDY    73  58  60 SE12G17   29.79F
PLATTEVILLE    CLOUDY    70  62  75 S21       29.88R
$$

WIZ056-057-062-063-064-067-068-220400-
SOUTH CENTRAL WISCONSIN

CITY           SKY/WX    TMP DP  RH WIND       PRES   REMARKS
REEDSBURG      CLEAR     70  59  69 S10G20    29.85R
BARABOO/DELLS  CLEAR     69  57  66 S18G24    29.86S
LONE ROCK      NOT AVBL
MINERAL POINT  PTCLDY    70  63  78 S13G20    29.88R
MADISON        PTCLDY    69  59  70 S16G22    29.90R
MIDDLETON      CLEAR     71  59  64 S15G21    29.89S
WATERTOWN      CLOUDY    70  60  70 S17G25    29.92S
MONROE         PTCLDY    68  57  68 S15G24    29.91S
JANESVILLE     CLOUDY    72  57  60 S16       29.92F
$$

WIZ051-052-058>065-066-070>072-220400-
SOUTHEAST WISCONSIN

CITY           SKY/WX    TMP DP  RH WIND       PRES   REMARKS
MILWAUKEE      PTCLDY    68  58  70 S13       29.96F
WAUKESHA       NOT AVBL
MILWAUKEE/TIMM CLEAR     66  54  63 S9        29.96F
RACINE         CLEAR     64  57  78 S13       29.99S
BURLINGTON     CLEAR     68  59  73 S10G17    29.95F
KENOSHA        CLEAR     69  57  65 S10G24    29.97F
FOND DU LAC    MOCLDY    69  56  62 S12       29.91S
SHEBOYGAN      CLOUDY    62  58  86 S10       29.95F
WEST BEND      MOCLDY    63  55  77 SE5       29.95S
JUNEAU         CLOUDY    69  58  68 S16G25    29.93S
$$

LSZ147-162-220400-
LAKE SUPERIOR

STATION/POSITION TIME  TEMP    WIND        PRES    WAVE
                       AIR SEA DIR/SP/G            HT/PER
                 (UTC) (F)     (DEG/KT/KT) (MB)    (FT/S)
W MID LAKE BUOY  0150   59 52              1006.2F   1/ 4
DEVILS ISLAND    0200   66     190/  8/ 11 1005.7R
PORT WING        0140          180/ 10/ 18 1005.1
SAXON HARBOR     0230   71     200/ 11/ 17 1005.8S
$$

LMZ867-665-643>646-220400-
LAKE MICHIGAN

STATION/POSITION TIME  TEMP    WIND        PRES    WAVE
                       AIR SEA DIR/SP/G            HT/PER
                 (UTC) (F)     (DEG/KT/KT) (MB)    (FT/S)
S GREEN BAY BUOY 0230   63 58  170/ 19/ 21 1012.3F
N MID LAKE BUOY  0150   62 58  190/ 10/ 12 1015.3R   7/ 6
NORTHPORT PIER   0240   61     160/ 11/ 19 1013.5S
KEWAUNEE LAKESHO 0230   56     180/ 12/ 13 1013.6R
SHEBOYGAN LAKESH 0200   57     180/ 17/ 18 1014.3F
PORT WASHINGTON  0240   57     190/  4/  7 1015.2F
ATWATER BUOY     0109   58 52  160/ 16/ 19 1014.6F
MILWAUKEE LAKESH 0230   58     150/ 12/ 13   N/A
S MID LAKE BUOY  0150   65 61  150/ 16/ 17 1016.5R   3/ 4
KENOSHA   LAKESH 0200   60     170/ 17/ 19 1014.9
$$

TC  - TEMPERATURE IN CELSIUS
VSB - VISIBILITY IN STATUTE MILES
WCI - WIND CHILL INDEX
HX  - HEAT INDEX





USA.gov is the U.S. government's official web portal to all federal, state and local government web resources and services.